Starlink 31801

operational
NORAD ID: 59647 Int'l Des: 2024-082 Owner: SPXS Country: US Constellation: starlink
LEOCIRCULAR

About Starlink 31801

Description loading...

Live Position

Loading 3D Globe...

Upcoming Passes

Altitude History

Altitude vs Time

uPlot chart will show altitude changes over time

Two-Line Element Set

1 59647U 24082S 25258.69503927 .00000119 00000-0 13876-4 0 9990
2 59647 43.0030 48.5199 0002149 281.2759 78.7852 15.27587074 78096
Epoch: Sep 15, 2025 • Age: 17 hours

Current Status

Altitude 482.7 km
Velocity 7.63 km/s
Sub-Earth Point 19.95°N, 79.51°W
Launch Date May 3, 2024
Age 1.3 years
Type internet

Technical Details

Classification Payload
Mass 730.00 kg
Dry Mass 700.00 kg
Total Mass 730.00 kg
Length 0.30 m
Diameter 4.10 m
Span 29.00 m
Shape Box + pan
Manufacturer SPXS
Bus Type Starlink V2M
Phase Status In Orbit
Owner/State SPXS/US

Large Constellations

Loading constellations...